User: anonymous   Login
Location: Muenchen
(48.1800°N, 11.5800°E)
Time: 18:44:41
(UTC+02:00)
Language:

ISS - Orbit

View from above orbital plane
View from above orbital plane
View from above satellite
View from above satellite

Ground track
Ground track

The orbit data is extracted from the following two-line orbital elements,

1 25544U 98067A   14298.55962743  .00021125  00000-0  36577-3 0  3003
2 25544 051.6461 173.3291 0002406 300.5671 133.5137 15.50867645911556
Epoch (UTC): 25 October 2014 13:25:51
Eccentricity: 0.0002406
inclination: 51.6461°
perigee height: 412 km
apogee height: 416 km
right ascension of ascending node: 173.3291°
argument of perigee: 300.5671°
revolutions per day: 15.50867645
mean anomaly at epoch: 133.5137°
orbit number at epoch: 91155

The dashed part of the orbit path shows where the satellite is in the earth's shadow,  

DLR